Вернуться в каталог

STARLINK-3533

АктивенСвязьVLEO
NORAD 51715·PAYLOAD·🇺🇸 United States

Запущен Feb 21, 2022 с Cape Canaveral Space Force Station

Loading…

Ближайшие Пролёты (ближайшие 24 часа)

TLE

СвежийSource: CelesTrak SupGP

Эпоха: Sep 14, 2026, 21:26 UTC

1 51715C 22016B   26257.89354167 -.00030268  00000+0 -97303-3 0  2577
2 51715  53.1589 186.0043 0001468  92.5046  36.9920 15.31726710    12

Отслеживайте STARLINK-3533 в реальном времени с AllMySat

Download on the App Store